Regional Weather Roundup
Issued by NWS Upton, NY

Current Version | Previous Version | Graphics & Text | Print | Product List | Glossary Off
Versions: 1 2 3 4 5 6 7 8 9 10 11 12 13 14 15 16 17 18 19 20 21 22 23 24 25 26 27 28 29 30 31 32 33 34 35 36 37 38 39 40 41 42 43 44 45 46 47 48 49 50

000
ASUS41 KOKX 270405
RWROKX

REGIONAL WEATHER ROUNDUP
NATIONAL WEATHER SERVICE NEW YORK NY
1100 PM EST MON JAN 26 2015

NOTE: "FAIR" INDICATES FEW OR NO CLOUDS BELOW 12,000 FEET WITH NO
SIGNIFICANT WEATHER AND/OR OBSTRUCTIONS TO VISIBILITY.

NYZ071-072-176-178-NJZ106-104-270500-
NEW YORK CITY METRO AREA


CITY           SKY/WX    TMP DP  RH WIND       PRES   REMARKS
CENTRAL PARK   LGT SNOW  26  20  77 N15G23    29.74F VSB 1   WCI  14
LAGUARDIA APRT LGT SNOW  25  22  88 N15G23    29.73F VSB 3/4 WCI  13
KENNEDY INTL   LGT SNOW  27  22  81 N24G32    29.70F WCI  12
NEWARK/LIBERTY LGT SNOW  24  21  88 N22G29    29.73F FOG     WCI   9
BRNX BOT. GARD   N/A    N/A N/A N/A N13       29.73F
TETERBORO      LGT SNOW  23  19  86 N9G18     29.73F BLWGSNOWWCI  13
$$

NYZ177-179-078>081-270500-
LONG ISLAND NEW YORK

CITY           SKY/WX    TMP DP  RH WIND       PRES   REMARKS
FARMINGDALE    LGT SNOW  25  22  88 N24G39    29.67F VSB 3/4 WCI   9
ISLIP          HVY SNOW  25  22  88 N23G38    29.63F VSB 1/4 WCI  10
SHIRLEY        SNOW      26  24  92 N16G31    29.65F VSB 1/2 WCI  14
WESTHAMPTON    SNOW      27  24  89 N26G39    29.63F VSB 1/2 WCI  12
MONTAUK POINT    N/A     31  28  89 N23G47    29.61F WCI  18
$$

NYZ052-065-067-270500-
HUDSON VALLEY

CITY           SKY/WX    TMP DP  RH WIND       PRES   REMARKS
WHITE PLAINS   LGT SNOW  24  19  81 N14G26    29.70F VSB 1   WCI  12
NEWBURGH       LGT SNOW  19  16  86 N16       29.81F WCI   5
MONTGOMERY     LGT SNOW  21  17  84 NE21G30   29.79F FOG     WCI   5
POUGHKEEPSIE   LGT SNOW  20  13  74 N12       29.83F WCI   8
ALBANY         LGT SNOW  16   8  71 N10       29.96F WCI   4
$$

NJZ001-105-106-008-010-013-015-019>022-104-270500-
NEW JERSEY

CITY           SKY/WX    TMP DP  RH WIND       PRES   REMARKS
NEWARK/LIBERTY LGT SNOW  24  21  88 N22G29    29.73F FOG     WCI   9
TETERBORO      LGT SNOW  23  19  86 N9G18     29.73F BLWGSNOWWCI  13
CALDWELL       LGT SNOW  22  17  81 N7        29.75F WCI  13
MORRISTOWN     FLURRIES  25  18  74 N14       29.75F WCI  13
SOMERVILLE     CLOUDY    26  17  68 N14G21    29.72F WCI  14
SUSSEX         LGT SNOW  21  15  78 NE14G24   29.76F WCI   8
ANDOVER          N/A     20  15  81 NE10G17   29.75F WCI   9
TRENTON        FLURRIES  27  19  72 N14G23    29.70F WCI  16
MILLVILLE      CLOUDY    30  24  78 N20G31    29.64F WCI  17
ATLANTIC CITY  CLOUDY    30  25  80 N17G29    29.62F WCI  18
WRIGHTSTOWN    CLOUDY    28  23  82 N13       29.66S WCI  17
TOMS RIVER     CLOUDY    27  27 100 NE16G32   29.65F WCI  14
BELMAR         CLOUDY    27  19  74 NE20G29   29.66F WCI  13
$$

PAZ047>061-062-071-270500-
EASTERN PENNSYLVANIA

CITY           SKY/WX    TMP DP  RH WIND       PRES   REMARKS
PHILADELPHIA   FLURRIES  29  22  75 N15       29.71F WCI  18
ALLENTOWN      CLOUDY    25  17  72 NE9       29.76F WCI  15
SCRANTON       CLOUDY    24  15  68 NE12      29.77F WCI  13
$$

CTZ002-004>006-009-010-012-RIZ004-006-007-MAZ004-011-015-270500-
SOUTHERN NEW ENGLAND
 IN CT

CITY           SKY/WX    TMP DP  RH WIND       PRES   REMARKS
BRADLEY INTL   LGT SNOW  20  15  81 N21G29    29.82F VSB 1   WCI   4
HARTFORD       LGT SNOW  20  17  88 N15G26    29.80F VSB 3/4 WCI   6
DANBURY        LGT SNOW  22  16  78 N13       29.76F WCI  10
WTRBRY/OXFORD  CLOUDY    19  10  68 NE21G31   29.70F WCI   3
BRIDGEPORT     LGT SNOW  24  21  88 N25G37    29.70F VSB 3/4 WCI   8
MERIDEN        LGT SNOW  21  17  84 N13G29    29.75F VSB 3/4 WCI   9
NEW HAVEN      LGT SNOW  22  18  85 N28G38    29.68F VSB 3/4 WCI   4
CHESTER        SNOW      25  21  86 NE17G31   29.68F VSB 1/2 WCI  11
GROTON         LGT SNOW  25  23  92 N28G39    29.64F VSB 3/4 WCI   9
WILLIMANTIC    LGT SNOW  21  16  81 NE20G30   29.75F VSB 1   WCI   6

 IN RI

CITY           SKY/WX    TMP DP  RH WIND       PRES   REMARKS
PROVIDENCE     SNOW      28  26  92 N25G39    29.73F VSB 1/2 WCI  13
BLOCK ISLAND   CLOUDY    30  27  86 NE36G48   29.58F VSB 1/2 WCI  14
WESTERLY       LGT SNOW  28  25  88 N22G38    29.65F VSB 3/4 WCI  14

 IN MA

CITY           SKY/WX    TMP DP  RH WIND       PRES   REMARKS
BOSTON         SNOW      21  19  92 N21G28    29.87F VSB 1/2 WCI   5
WORCESTER      SNOW      13  10  88 NE22G37   29.79F VSB 1/2 WCI  -6
WESTFIELD      LGT SNOW  19  13  77 N20G29    29.86F WCI   3
PROVINCETOWN   CLOUDY    30  28  93 NE41G53   29.77F VSB 1/2 WCI  13
NANTUCKET      LGT SNOW  33  31  92 NE51G62   29.55F VSB 3/4 WCI  16
$$

ANZ330-335-338-340-345-350-353-355-270500-
COASTAL MARINE OBSERVATIONS


STATION/POSITION TIME  SKY/WX   TEMP    WIND        PRES    VSBY  WAVE
                                AIR SEA DIR/SP/G                  HT/PER
                 (UTC)          (F)     (DEG/KT/KT) (MB)    (MI)  (FT/S)
NY HARB ENTRANCE 0400            30 44   20/ 29/ 35 1003.1         10/ 9
4S FIRE IS       0400               39                N/A           9/ 9
20S FIRE ISLAND  0300               41              1002.2         15/ 9
23SW MTP         0400                                 N/A          15/ 8
HUDSON CANYON    NOT AVBL
EXECUTION ROCKS  0400            27 34   30/ 19/ 25   N/A
WESTERN LI SOUND 0400            26      30/ 19/ 23   N/A           4/ 6
CENTRAL LI SOUND 0300            27 36   20/ 27/ 33   N/A           4/ 5
EASTERN LI SOUND NOT AVBL
ROBBINS REEF     0400            26     360/ 22/ 26 1005.3
$$


>>>>>>>>>>>>>>>>>>>>>>>>>>>> KEY <<<<<<<<<<<<<<<<<<<<<<<<<<<
>                                                          <
>     SKY/WX - SKY CONDITION/PRESENT WEATHER               <
>     TMP    - TEMPERATURE IN FAHRENHEIT                   <
>     DP     - DEWPOINT IN FAHRENHEIT                      <
>     RH     - RELATIVE HUMIDITY IN PERCENT                <
>     WIND   - DIRECTION AND SPEED IN MPH                  <
>     PRES   - MEAN SEA LEVEL PRESSURE IN INCHES OF HG     <
>     WCI    - WIND CHILL INDEX                            <
>     VSB    - VISIBILITY IN MILES                         <
>     HX     - HEAT INDEX                                  <
>     TC     - TEMPERATURE IN CELSIUS                      <
>     VRB    - VARIABLE WIND DIRECTION                     <
>                                                          <
>>>>>>>>>>>>>>>>>>>>>>>>>>>> KEY <<<<<<<<<<<<<<<<<<<<<<<<<<<




USA.gov is the U.S. government's official web portal to all federal, state and local government web resources and services.